Time,TemperatureF,DewpointF,PressureIn,WindDirection,WindDirectionDegrees,WindSpeedMPH,WindSpeedGustMPH,Humidity,HourlyPrecipIn,Conditions,Clouds,dailyrainin,SoftwareType,DateUTC
2013-02-06 00:02:00,28.0,24.0,29.93,WNW,283,0.0,-999.0,85,-99.99,,,-99.99,,2013-02-06 05:02:00,
2013-02-06 00:12:00,28.0,24.0,29.93,WNW,283,0.0,-999.0,85,-99.99,,,-99.99,,2013-02-06 05:12:00,
2013-02-06 00:22:00,28.0,24.0,29.93,WNW,284,0.0,-999.0,85,-99.99,,,-99.99,,2013-02-06 05:22:00,
2013-02-06 00:32:00,28.0,24.0,29.93,WSW,251,0.0,-999.0,85,-99.99,,,-99.99,,2013-02-06 05:32:00,
2013-02-06 00:42:00,28.0,24.0,29.93,WSW,251,0.0,-999.0,85,-99.99,,,-99.99,,2013-02-06 05:42:00,
2013-02-06 00:53:00,28.0,24.0,29.94,WNW,282,0.0,-999.0,85,-99.99,,,-99.99,,2013-02-06 05:53:00,
2013-02-06 01:01:00,28.0,24.0,29.94,WNW,282,0.0,-999.0,85,-99.99,,,-99.99,,2013-02-06 06:01:00,
2013-02-06 01:11:00,28.0,24.0,29.94,WNW,282,0.0,-999.0,85,-99.99,,,-99.99,,2013-02-06 06:11:00,
2013-02-06 01:22:00,28.0,24.0,29.94,WSW,248,0.0,-999.0,85,-99.99,,,-99.99,,2013-02-06 06:22:00,
2013-02-06 01:32:00,28.0,24.0,29.95,NNW,340,0.0,-999.0,86,-99.99,,,-99.99,,2013-02-06 06:32:00,
2013-02-06 01:42:00,28.0,24.0,29.95,NNW,340,0.0,-999.0,86,-99.99,,,-99.99,,2013-02-06 06:42:00,
2013-02-06 01:52:00,27.0,24.0,29.95,WSW,257,0.0,-999.0,87,-99.99,,,-99.99,,2013-02-06 06:52:00,
2013-02-06 02:01:00,27.0,24.0,29.95,WSW,253,0.0,-999.0,88,-99.99,,,-99.99,,2013-02-06 07:01:00,
2013-02-06 02:11:00,27.0,24.0,29.95,WSW,253,0.0,-999.0,88,-99.99,,,-99.99,,2013-02-06 07:11:00,
2013-02-06 02:22:00,27.0,24.0,29.96,West,265,0.0,-999.0,88,-99.99,,,-99.99,,2013-02-06 07:22:00,
2013-02-06 02:32:00,26.0,23.0,29.96,WSW,248,0.0,-999.0,88,-99.99,,,-99.99,,2013-02-06 07:32:00,
2013-02-06 02:42:00,26.0,23.0,29.96,WSW,248,0.0,-999.0,88,-99.99,,,-99.99,,2013-02-06 07:42:00,
2013-02-06 02:52:00,26.0,23.0,29.96,West,262,0.0,-999.0,89,-99.99,,,-99.99,,2013-02-06 07:52:00,
2013-02-06 03:01:00,26.0,23.0,29.97,West,281,0.0,-999.0,89,-99.99,,,-99.99,,2013-02-06 08:01:00,
2013-02-06 03:11:00,26.0,23.0,29.97,West,281,0.0,-999.0,89,-99.99,,,-99.99,,2013-02-06 08:11:00,
2013-02-06 03:21:00,26.0,23.0,29.97,WNW,286,0.0,-999.0,90,-99.99,,,-99.99,,2013-02-06 08:21:00,
2013-02-06 03:31:00,25.0,23.0,29.97,WSW,238,0.0,-999.0,91,-99.99,,,-99.99,,2013-02-06 08:31:00,
2013-02-06 03:42:00,25.0,23.0,29.97,WSW,238,0.0,-999.0,91,-99.99,,,-99.99,,2013-02-06 08:42:00,
2013-02-06 03:53:00,25.0,23.0,29.98,West,276,0.0,-999.0,91,-99.99,,,-99.99,,2013-02-06 08:53:00,
2013-02-06 04:02:00,24.0,22.0,29.98,West,272,0.0,-999.0,92,-99.99,,,-99.99,,2013-02-06 09:02:00,
2013-02-06 04:11:00,24.0,22.0,29.98,West,272,0.0,-999.0,92,-99.99,,,-99.99,,2013-02-06 09:11:00,
2013-02-06 04:21:00,24.0,22.0,29.98,West,272,0.0,-999.0,92,-99.99,,,-99.99,,2013-02-06 09:21:00,
2013-02-06 04:32:00,23.0,21.0,29.99,WSW,257,0.0,-999.0,93,-99.99,,,-99.99,,2013-02-06 09:32:00,
2013-02-06 04:42:00,23.0,21.0,29.99,WSW,257,0.0,-999.0,93,-99.99,,,-99.99,,2013-02-06 09:42:00,
2013-02-06 04:52:00,23.0,21.0,29.99,West,273,0.0,-999.0,93,-99.99,,,-99.99,,2013-02-06 09:52:00,
2013-02-06 05:01:00,22.0,20.0,29.99,WSW,257,0.0,-999.0,93,-99.99,,,-99.99,,2013-02-06 10:01:00,
2013-02-06 05:11:00,22.0,20.0,29.99,WSW,257,0.0,-999.0,93,-99.99,,,-99.99,,2013-02-06 10:11:00,
2013-02-06 05:22:00,22.0,21.0,30.00,WNW,288,0.0,-999.0,94,-99.99,,,-99.99,,2013-02-06 10:22:00,
2013-02-06 05:32:00,22.0,20.0,30.01,West,271,0.0,-999.0,93,-99.99,,,-99.99,,2013-02-06 10:32:00,
2013-02-06 05:42:00,22.0,20.0,30.01,West,271,0.0,-999.0,93,-99.99,,,-99.99,,2013-02-06 10:42:00,
2013-02-06 05:52:00,21.0,19.0,30.02,WNW,284,0.0,-999.0,93,-99.99,,,-99.99,,2013-02-06 10:52:00,
2013-02-06 06:01:00,21.0,20.0,30.03,West,279,0.0,-999.0,94,-99.99,,,-99.99,,2013-02-06 11:01:00,
2013-02-06 06:11:00,21.0,20.0,30.03,West,279,0.0,-999.0,94,-99.99,,,-99.99,,2013-02-06 11:11:00,
2013-02-06 06:22:00,21.0,20.0,30.04,WNW,285,0.0,-999.0,94,-99.99,,,-99.99,,2013-02-06 11:22:00,
2013-02-06 06:32:00,21.0,20.0,30.04,West,280,0.0,-999.0,94,-99.99,,,-99.99,,2013-02-06 11:32:00,
2013-02-06 06:42:00,21.0,20.0,30.04,West,280,0.0,-999.0,94,-99.99,,,-99.99,,2013-02-06 11:42:00,
2013-02-06 06:53:00,21.0,19.0,30.05,West,270,0.0,-999.0,93,-99.99,,,-99.99,,2013-02-06 11:53:00,
2013-02-06 07:02:00,21.0,20.0,30.06,West,268,0.0,-999.0,94,-99.99,,,-99.99,,2013-02-06 12:02:00,
2013-02-06 07:12:00,21.0,20.0,30.06,West,268,0.0,-999.0,94,-99.99,,,-99.99,,2013-02-06 12:12:00,
2013-02-06 07:22:00,21.0,20.0,30.07,West,271,0.0,-999.0,94,-99.99,,,-99.99,,2013-02-06 12:22:00,
2013-02-06 07:32:00,21.0,20.0,30.08,West,272,0.0,-999.0,94,-99.99,,,-99.99,,2013-02-06 12:32:00,
2013-02-06 07:42:00,21.0,20.0,30.08,West,272,0.0,-999.0,94,-99.99,,,-99.99,,2013-02-06 12:42:00,
2013-02-06 07:52:00,21.0,20.0,30.07,West,278,0.0,-999.0,94,-99.99,,,-99.99,,2013-02-06 12:52:00,
2013-02-06 08:01:00,21.0,20.0,30.09,West,278,0.0,-999.0,94,-99.99,,,-99.99,,2013-02-06 13:01:00,
2013-02-06 08:12:00,21.0,20.0,30.09,West,278,0.0,-999.0,94,-99.99,,,-99.99,,2013-02-06 13:12:00,
2013-02-06 08:22:00,21.0,20.0,30.10,West,265,0.0,-999.0,94,-99.99,,,-99.99,,2013-02-06 13:22:00,
2013-02-06 08:32:00,21.0,20.0,30.11,West,263,0.0,-999.0,94,-99.99,,,-99.99,,2013-02-06 13:32:00,
2013-02-06 08:42:00,21.0,20.0,30.11,West,263,0.0,-999.0,94,-99.99,,,-99.99,,2013-02-06 13:42:00,
2013-02-06 08:52:00,21.0,20.0,30.11,West,265,0.0,-999.0,94,-99.99,,,-99.99,,2013-02-06 13:52:00,
2013-02-06 09:02:00,21.0,20.0,30.12,West,273,0.0,-999.0,94,-99.99,,,-99.99,,2013-02-06 14:02:00,
2013-02-06 09:11:00,21.0,20.0,30.12,West,273,0.0,-999.0,94,-99.99,,,-99.99,,2013-02-06 14:11:00,
2013-02-06 09:22:00,21.0,19.0,30.13,West,277,0.0,-999.0,93,-99.99,,,-99.99,,2013-02-06 14:22:00,
2013-02-06 09:32:00,21.0,19.0,30.13,West,277,0.0,-999.0,93,-99.99,,,-99.99,,2013-02-06 14:32:00,
2013-02-06 09:42:00,21.0,19.0,30.13,West,277,0.0,-999.0,93,-99.99,,,-99.99,,2013-02-06 14:42:00,
2013-02-06 09:52:00,22.0,20.0,30.14,West,277,0.0,-999.0,93,-99.99,,,-99.99,,2013-02-06 14:52:00,
2013-02-06 10:02:00,22.0,20.0,30.15,West,277,0.0,-999.0,93,-99.99,,,-99.99,,2013-02-06 15:02:00,
2013-02-06 10:11:00,22.0,20.0,30.15,West,277,0.0,-999.0,93,-99.99,,,-99.99,,2013-02-06 15:11:00,
2013-02-06 10:21:00,22.0,20.0,30.15,West,277,0.0,-999.0,93,-99.99,,,-99.99,,2013-02-06 15:21:00,
2013-02-06 10:32:00,22.0,20.0,30.16,West,277,0.0,-999.0,93,-99.99,,,-99.99,,2013-02-06 15:32:00,
2013-02-06 10:42:00,22.0,20.0,30.16,West,277,0.0,-999.0,93,-99.99,,,-99.99,,2013-02-06 15:42:00,
2013-02-06 10:52:00,22.0,20.0,30.17,West,277,0.0,-999.0,93,-99.99,,,-99.99,,2013-02-06 15:52:00,
2013-02-06 11:01:00,23.0,21.0,30.18,West,277,0.0,-999.0,93,-99.99,,,-99.99,,2013-02-06 16:01:00,
2013-02-06 11:11:00,23.0,21.0,30.18,West,277,0.0,-999.0,93,-99.99,,,-99.99,,2013-02-06 16:11:00,
2013-02-06 11:21:00,22.0,20.0,30.19,West,277,0.0,-999.0,93,-99.99,,,-99.99,,2013-02-06 16:21:00,
2013-02-06 11:32:00,22.0,20.0,30.19,West,277,0.0,-999.0,93,-99.99,,,-99.99,,2013-02-06 16:32:00,
2013-02-06 11:42:00,22.0,20.0,30.19,West,277,0.0,-999.0,93,-99.99,,,-99.99,,2013-02-06 16:42:00,
2013-02-06 11:52:00,23.0,21.0,30.20,West,277,0.0,-999.0,93,-99.99,,,-99.99,,2013-02-06 16:52:00,
2013-02-06 12:02:00,23.0,21.0,30.20,West,277,0.0,-999.0,93,-99.99,,,-99.99,,2013-02-06 17:02:00,
2013-02-06 12:12:00,23.0,21.0,30.20,West,277,0.0,-999.0,93,-99.99,,,-99.99,,2013-02-06 17:12:00,
2013-02-06 12:22:00,23.0,21.0,30.20,West,277,0.0,-999.0,93,-99.99,,,-99.99,,2013-02-06 17:22:00,
2013-02-06 12:32:00,23.0,21.0,30.21,West,277,0.0,-999.0,93,-99.99,,,-99.99,,2013-02-06 17:32:00,
2013-02-06 12:42:00,23.0,21.0,30.21,West,277,0.0,-999.0,93,-99.99,,,-99.99,,2013-02-06 17:42:00,
2013-02-06 12:52:00,23.0,21.0,30.20,West,277,0.0,-999.0,93,-99.99,,,-99.99,,2013-02-06 17:52:00,
2013-02-06 13:01:00,23.0,21.0,30.19,West,277,0.0,-999.0,93,-99.99,,,-99.99,,2013-02-06 18:01:00,
2013-02-06 13:11:00,23.0,21.0,30.20,West,277,0.0,-999.0,93,-99.99,,,-99.99,,2013-02-06 18:11:00,
2013-02-06 13:23:00,23.0,21.0,30.20,West,277,0.0,-999.0,93,-99.99,,,-99.99,,2013-02-06 18:23:00,
2013-02-06 13:32:00,24.0,22.0,30.20,West,277,0.0,-999.0,92,-99.99,,,-99.99,,2013-02-06 18:32:00,
2013-02-06 13:42:00,24.0,22.0,30.20,West,277,0.0,-999.0,92,-99.99,,,-99.99,,2013-02-06 18:42:00,
2013-02-06 13:52:00,24.0,22.0,30.20,West,277,0.0,-999.0,91,-99.99,,,-99.99,,2013-02-06 18:52:00,
2013-02-06 14:02:00,24.0,22.0,30.21,West,277,0.0,-999.0,92,-99.99,,,-99.99,,2013-02-06 19:02:00,
2013-02-06 14:11:00,24.0,22.0,30.21,West,277,0.0,-999.0,92,-99.99,,,-99.99,,2013-02-06 19:11:00,
2013-02-06 14:21:00,24.0,22.0,30.21,West,277,0.0,-999.0,91,-99.99,,,-99.99,,2013-02-06 19:21:00,
2013-02-06 14:32:00,25.0,23.0,30.22,West,277,0.0,-999.0,92,-99.99,,,-99.99,,2013-02-06 19:32:00,
2013-02-06 14:42:00,25.0,23.0,30.22,West,277,0.0,-999.0,92,-99.99,,,-99.99,,2013-02-06 19:42:00,
2013-02-06 14:52:00,25.0,23.0,30.22,West,277,0.0,-999.0,91,-99.99,,,-99.99,,2013-02-06 19:52:00,
2013-02-06 15:01:00,25.0,22.0,30.23,West,277,0.0,-999.0,90,-99.99,,,-99.99,,2013-02-06 20:01:00,
2013-02-06 15:11:00,27.0,23.0,30.22,West,277,0.0,-999.0,85,-99.99,,,-99.99,,2013-02-06 20:11:00,
2013-02-06 15:21:00,27.0,23.0,30.22,West,277,0.0,-999.0,85,-99.99,,,-99.99,,2013-02-06 20:21:00,
2013-02-06 15:32:00,27.0,24.0,30.23,West,277,0.0,-999.0,87,-99.99,,,-99.99,,2013-02-06 20:32:00,
2013-02-06 15:42:00,27.0,24.0,30.23,West,277,0.0,-999.0,87,-99.99,,,-99.99,,2013-02-06 20:42:00,
2013-02-06 15:52:00,27.0,24.0,30.23,West,277,0.0,-999.0,90,-99.99,,,-99.99,,2013-02-06 20:52:00,
2013-02-06 16:02:00,27.0,24.0,30.23,West,277,0.0,-999.0,88,-99.99,,,-99.99,,2013-02-06 21:02:00,
2013-02-06 16:11:00,27.0,24.0,30.23,West,277,0.0,-999.0,88,-99.99,,,-99.99,,2013-02-06 21:11:00,
2013-02-06 16:21:00,28.0,24.0,30.24,West,277,0.0,-999.0,85,-99.99,,,-99.99,,2013-02-06 21:21:00,
2013-02-06 16:32:00,28.0,24.0,30.24,West,277,0.0,-999.0,86,-99.99,,,-99.99,,2013-02-06 21:32:00,
2013-02-06 16:42:00,28.0,24.0,30.24,West,277,0.0,-999.0,86,-99.99,,,-99.99,,2013-02-06 21:42:00,
2013-02-06 16:52:00,28.0,25.0,30.24,West,277,0.0,-999.0,87,-99.99,,,-99.99,,2013-02-06 21:52:00,
2013-02-06 17:01:00,28.0,25.0,30.24,West,277,0.0,-999.0,88,-99.99,,,-99.99,,2013-02-06 22:01:00,
2013-02-06 17:11:00,28.0,25.0,30.24,West,277,0.0,-999.0,88,-99.99,,,-99.99,,2013-02-06 22:11:00,
2013-02-06 17:22:00,28.0,25.0,30.24,West,277,0.0,-999.0,88,-99.99,,,-99.99,,2013-02-06 22:22:00,
2013-02-06 17:32:00,28.0,25.0,30.24,West,277,0.0,-999.0,88,-99.99,,,-99.99,,2013-02-06 22:32:00,
2013-02-06 17:42:00,28.0,25.0,30.24,West,277,0.0,-999.0,88,-99.99,,,-99.99,,2013-02-06 22:42:00,
2013-02-06 17:52:00,28.0,25.0,30.25,West,277,0.0,-999.0,90,-99.99,,,-99.99,,2013-02-06 22:52:00,
2013-02-06 18:01:00,27.0,25.0,30.26,West,277,0.0,-999.0,93,-99.99,,,-99.99,,2013-02-06 23:01:00,
2013-02-06 18:11:00,27.0,25.0,30.26,West,277,0.0,-999.0,93,-99.99,,,-99.99,,2013-02-06 23:11:00,
2013-02-06 18:21:00,25.0,24.0,30.26,West,277,0.0,-999.0,94,-99.99,,,-99.99,,2013-02-06 23:21:00,
2013-02-06 18:32:00,24.0,23.0,30.27,West,277,0.0,-999.0,94,-99.99,,,-99.99,,2013-02-06 23:32:00,
2013-02-06 18:42:00,24.0,23.0,30.27,West,277,0.0,-999.0,94,-99.99,,,-99.99,,2013-02-06 23:42:00,
2013-02-06 18:52:00,23.0,22.0,30.28,West,277,0.0,-999.0,94,-99.99,,,-99.99,,2013-02-06 23:52:00,
2013-02-06 19:02:00,22.0,21.0,30.28,West,277,0.0,-999.0,94,-99.99,,,-99.99,,2013-02-07 00:02:00,
2013-02-06 19:11:00,22.0,21.0,30.28,West,277,0.0,-999.0,94,-99.99,,,-99.99,,2013-02-07 00:11:00,
2013-02-06 19:22:00,22.0,21.0,30.29,West,277,0.0,-999.0,94,-99.99,,,-99.99,,2013-02-07 00:22:00,
2013-02-06 19:32:00,22.0,21.0,30.29,West,277,0.0,-999.0,94,-99.99,,,-99.99,,2013-02-07 00:32:00,
2013-02-06 19:42:00,22.0,21.0,30.29,West,277,0.0,-999.0,94,-99.99,,,-99.99,,2013-02-07 00:42:00,
2013-02-06 19:52:00,22.0,21.0,30.30,West,277,0.0,-999.0,94,-99.99,,,-99.99,,2013-02-07 00:52:00,
2013-02-06 20:01:00,22.0,21.0,30.29,West,277,0.0,-999.0,94,-99.99,,,-99.99,,2013-02-07 01:01:00,
2013-02-06 20:11:00,22.0,21.0,30.29,West,277,0.0,-999.0,94,-99.99,,,-99.99,,2013-02-07 01:11:00,
2013-02-06 20:21:00,22.0,21.0,30.29,West,277,0.0,-999.0,94,-99.99,,,-99.99,,2013-02-07 01:21:00,
2013-02-06 20:32:00,22.0,21.0,30.30,West,277,0.0,-999.0,94,-99.99,,,-99.99,,2013-02-07 01:32:00,
2013-02-06 20:42:00,22.0,21.0,30.30,West,277,0.0,-999.0,94,-99.99,,,-99.99,,2013-02-07 01:42:00,
2013-02-06 20:52:00,22.0,21.0,30.31,West,277,0.0,-999.0,94,-99.99,,,-99.99,,2013-02-07 01:52:00,
2013-02-06 21:01:00,22.0,20.0,30.31,West,276,0.0,-999.0,93,-99.99,,,-99.99,,2013-02-07 02:01:00,
2013-02-06 21:11:00,22.0,20.0,30.31,West,276,0.0,-999.0,93,-99.99,,,-99.99,,2013-02-07 02:11:00,
2013-02-06 21:21:00,22.0,20.0,30.31,West,276,0.0,-999.0,93,-99.99,,,-99.99,,2013-02-07 02:21:00,
2013-02-06 21:32:00,22.0,20.0,30.31,West,276,0.0,-999.0,93,-99.99,,,-99.99,,2013-02-07 02:32:00,
2013-02-06 21:42:00,22.0,20.0,30.31,West,276,0.0,-999.0,93,-99.99,,,-99.99,,2013-02-07 02:42:00,
2013-02-06 21:52:00,22.0,20.0,30.31,West,276,0.0,-999.0,93,-99.99,,,-99.99,,2013-02-07 02:52:00,
2013-02-06 22:02:00,22.0,20.0,30.30,West,276,0.0,-999.0,93,-99.99,,,-99.99,,2013-02-07 03:02:00,
2013-02-06 22:11:00,22.0,20.0,30.30,West,276,0.0,-999.0,93,-99.99,,,-99.99,,2013-02-07 03:11:00,
2013-02-06 22:21:00,23.0,21.0,30.30,West,276,0.0,-999.0,93,-99.99,,,-99.99,,2013-02-07 03:21:00,
2013-02-06 22:32:00,23.0,21.0,30.29,West,276,0.0,-999.0,93,-99.99,,,-99.99,,2013-02-07 03:32:00,
2013-02-06 22:42:00,23.0,21.0,30.29,West,276,0.0,-999.0,93,-99.99,,,-99.99,,2013-02-07 03:42:00,
2013-02-06 22:52:00,23.0,21.0,30.28,West,276,0.0,-999.0,93,-99.99,,,-99.99,,2013-02-07 03:52:00,
2013-02-06 23:01:00,23.0,21.0,30.29,West,276,0.0,-999.0,93,-99.99,,,-99.99,,2013-02-07 04:01:00,
2013-02-06 23:11:00,23.0,21.0,30.29,West,276,0.0,-999.0,93,-99.99,,,-99.99,,2013-02-07 04:11:00,
2013-02-06 23:22:00,23.0,21.0,30.30,West,276,0.0,-999.0,92,-99.99,,,-99.99,,2013-02-07 04:22:00,
2013-02-06 23:32:00,23.0,21.0,30.31,West,276,0.0,-999.0,93,-99.99,,,-99.99,,2013-02-07 04:32:00,
2013-02-06 23:42:00,23.0,21.0,30.31,West,276,0.0,-999.0,93,-99.99,,,-99.99,,2013-02-07 04:42:00,
2013-02-06 23:53:00,23.0,21.0,30.32,West,276,0.0,-999.0,93,-99.99,,,-99.99,,2013-02-07 04:53:00,